Location: Roanoke
(37.2710°N, 79.9420°W)
Time: 14:38:09
(UTC-05:00)

S-56A Canister/Altair - Pass Details

Date: 28 November 2019
Orbit: 632 x 2500 km, 38.9° (Epoch: 14 December)

Event Time Altitude Azimuth Distance (km) Brightness Sun altitude
Rises 19:35:07 0° 288° (WNW) 5,010 12.7 -29.8°
Reaches altitude 10° 19:39:01 10° 284° (WNW) 3,709 11.8 -30.5°
Maximum altitude 19:47:33 50° 213° (SSW) 1,388 8.9 -32.2°
Enters shadow 19:48:36 46° 185° (S) 1,391 8.7 -32.4°
Drops below altitude 10° 19:53:17 10° 138° (SE) 2,511 - -33.4°
Sets 19:55:29 0° 133° (SE) 3,287 - -33.8°
